Wind_Speed
3 3 3 2 2 2 2 2 3 2 2 1 1 1 1 1 1 1 1 1 1 2 2 2 2 3 3 4 4 4 4 4 5 5 6 6 6 6 6 6 6 6 7
2 2 2 1 1 2 2 2 2 2 1 1 1 0 1 1 1 1 2 2 2 3 3 3 4 4 4 5 5 5 6 6 7 7 7 7 7 7 8 8 8 8 9
1 1 1 0 1 1 2 2 2 2 2 2 2 2 2 2 3 3 3 3 3 4 4 4 5 5 6 6 7 7 8 8 8 8 8 8 8 9 9 9 10 11 11
1 1 1 1 0 0 0 1 1 1 2 2 3 3 3 3 3 4 4 4 4 5 5 5 6 6 7 8 8 9 9 9 9 9 9 10 10 10 11 11 12 12 12
3 1 1 1 0 0 1 1 1 2 3 3 3 4 4 5 5 5 5 6 6 6 6 6 7 8 8 9 9 10 10 10 10 10 11 11 11 12 12 12 13 13 14
4 2 1 1 1 1 1 1 2 3 3 3 4 5 5 6 6 7 7 7 7 7 8 8 9 9 10 10 10 11 11 11 12 12 12 12 12 12 12 13 14 14 15
6 5 3 2 2 2 2 2 3 4 4 5 6 6 6 6 6 7 7 8 8 8 9 10 10 11 11 11 12 12 12 13 13 13 13 13 14 14 14 14 14 15 15
6 6 5 4 3 4 4 4 4 5 6 6 6 6 6 7 7 7 9 9 9 10 10 10 11 11 12 13 13 14 14 14 14 14 14 14 14 14 15 15 15 16 16
7 7 7 6 5 5 5 5 5 6 7 7 7 7 7 8 8 8 8 9 10 11 11 11 11 12 13 14 14 15 15 15 15 15 15 16 16 16 15 17 18 18 18
9 8 8 7 7 6 5 6 6 7 7 8 8 8 8 8 9 9 9 10 10 11 12 12 13 14 14 15 15 16 16 16 16 16 16 16 17 17 17 18 18 18 19
10 10 9 9 8 8 7 7 8 8 8 9 9 9 10 10 10 10 11 12 12 13 13 13 14 15 15 15 16 16 16 16 16 16 16 17 18 18 18 18 18 18 18
10 10 11 10 9 8 8 8 8 9 10 10 10 11 11 11 11 12 13 13 14 14 15 15 15 15 15 15 16 16 16 16 17 17 17 18 19 19 18 18 19 19 20
11 11 11 11 10 9 9 9 10 10 10 11 11 12 12 13 13 13 14 15 15 15 16 16 16 16 16 16 16 16 16 16 17 18 18 18 19 19 20 20 21 21 22
12 12 12 12 12 11 10 10 11 11 11 12 12 12 13 14 14 15 15 15 15 16 16 16 16 16 16 16 17 17 17 17 17 17 17 18 19 20 20 21 21 22 23
13 13 13 14 13 13 13 12 12 12 12 12 13 13 14 14 15 15 15 16 16 17 16 16 16 16 17 17 18 18 18 18 19 19 19 20 20 20 21 22 22 22 24
15 15 15 15 15 15 14 14 14 14 14 14 14 14 15 15 16 16 16 16 17 18 18 18 18 18 18 19 19 20 19 20 21 21 21 21 22 22 22 23 24 24 25
16 17 17 16 16 16 16 16 15 15 15 15 15 15 15 15 16 17 17 18 18 19 19 19 19 19 19 19 20 20 21 21 22 22 22 22 23 23 24 24 25 25 25
18 18 18 18 17 17 17 17 16 16 16 16 16 16 16 17 17 18 18 18 19 19 20 20 20 20 20 20 21 21 21 22 23 23 23 23 24 24 25 26 26 26 27
18 19 19 19 18 18 18 18 18 18 17 17 17 17 17 18 18 19 19 20 20 21 21 21 21 21 21 22 22 22 22 22 23 24 24 24 25 25 26 26 26 27 27
19 19 19 19 19 19 19 19 19 19 19 19 18 18 19 19 19 20 20 21 21 22 21 22 22 22 22 23 23 23 23 24 25 25 25 25 25 26 26 26 26 27 27
20 20 20 20 20 20 21 21 21 21 20 20 20 20 20 20 20 20 21 22 22 22 23 23 23 24 24 24 25 25 25 25 26 26 26 27 27 27 27 27 27 28 28
21 22 21 21 22 22 22 23 22 22 21 21 21 21 21 21 22 22 22 23 24 24 24 25 25 26 26 27 26 26 27 26 26 27 27 27 27 28 28 28 28 29 29
22 23 23 23 23 23 23 24 24 23 23 22 22 22 22 23 23 23 24 25 26 26 26 26 27 27 27 27 27 27 28 28 28 28 28 28 28 28 29 29 29 29 30
24 25 25 24 24 24 24 25 25 25 24 24 24 24 25 25 25 26 26 26 26 27 27 27 28 28 28 28 28 28 28 28 28 29 29 28 29 29 29 30 30 30 30
26 26 26 26 26 26 27 27 27 27 26 25 25 26 26 27 27 27 28 28 28 28 27 27 28 28 28 29 29 28 28 29 29 29 29 29 29 29 29 30 30 30 30
27 27 28 28 28 29 29 29 29 28 28 27 27 28 28 28 28 28 29 29 28 28 28 28 28 29 29 28 28 28 29 29 30 30 30 30 30 30 29 29 30 29 30
Wind_Direction
132 125 131 135 138 138 132 131 139 138 127 117 124 124 112 160 207 238 284 299 279 270 270 270 280 289 299 302 302 303 304 309 312 309 305 295 296 295 292 288 284 280 282
119 107 120 139 166 173 167 158 165 167 166 173 182 201 215 233 241 245 258 273 286 283 280 279 283 287 292 297 299 297 299 303 304 305 302 294 290 291 288 285 283 282 282
114 93 93 138 181 215 193 189 190 217 233 250 265 269 270 268 261 265 265 268 278 282 282 281 279 285 288 291 295 297 296 297 296 300 299 291 291 291 289 283 282 283 281
93 100 69 51 142 186 194 207 232 255 259 270 276 266 276 274 269 269 273 274 276 281 281 280 279 283 287 288 292 292 293 292 293 294 295 291 289 288 287 284 283 282 280
64 80 51 51 127 211 278 274 276 278 285 288 287 277 276 271 272 271 275 273 274 277 280 279 280 282 285 288 289 290 292 291 291 293 293 292 290 288 287 285 283 281 279
46 42 21 20 18 295 292 296 303 299 293 292 287 283 280 278 274 273 277 279 278 280 281 282 282 284 286 287 288 289 290 290 287 288 289 289 289 289 287 285 282 281 280
36 35 23 20 12 340 316 307 307 311 307 300 292 289 289 283 281 280 280 283 284 286 284 284 285 286 288 289 288 291 291 289 286 286 286 286 285 286 287 287 286 283 281
32 28 22 13 359 344 330 316 310 312 312 306 300 295 296 290 288 287 286 285 285 288 289 289 288 287 291 291 293 294 290 288 287 285 285 285 285 285 285 286 285 286 284
27 23 12 8 352 339 332 320 313 310 309 305 306 301 297 295 294 296 295 289 286 288 291 291 293 290 291 291 291 294 292 289 289 286 283 283 285 285 285 285 284 284 284
21 15 7 0 350 344 335 321 313 309 309 308 308 305 299 299 299 300 299 297 293 293 292 292 292 290 292 291 291 293 292 288 287 287 286 284 285 287 284 285 286 285 285
15 10 3 354 348 343 336 326 313 307 306 307 305 305 303 298 298 297 297 296 295 295 295 293 292 293 292 293 293 292 292 289 288 288 287 288 291 290 288 286 288 288 287
11 6 2 356 348 339 335 329 321 308 303 302 301 300 300 301 304 301 298 295 293 294 296 295 295 298 297 297 296 295 294 293 290 290 287 288 290 290 289 287 287 286 287
10 5 1 355 349 339 331 327 322 316 306 300 298 299 299 300 301 302 300 298 295 294 294 295 295 299 299 298 297 298 299 297 293 290 288 288 290 290 289 288 286 285 286
5 1 357 352 348 343 335 328 322 316 309 303 299 299 301 302 299 300 300 297 296 296 294 293 292 297 298 298 297 295 296 297 296 295 293 293 292 291 290 290 289 286 287
360 355 352 349 347 342 337 331 326 321 315 309 305 302 302 301 301 301 302 299 298 298 298 296 295 294 296 297 296 296 295 296 297 295 296 296 295 293 294 292 290 288 289
357 352 346 344 341 338 335 331 326 321 316 310 304 301 301 301 300 300 301 300 298 297 296 295 295 295 295 297 297 297 296 297 297 295 293 295 295 293 294 295 293 292 293
351 349 345 340 335 333 333 331 327 324 318 313 308 304 301 302 302 301 300 299 298 298 297 296 296 296 296 297 297 297 296 296 295 295 293 294 294 293 293 294 293 293 294
346 347 345 340 335 333 331 330 326 324 320 316 312 307 303 302 302 302 301 301 300 301 300 298 297 297 297 298 297 297 296 295 294 294 294 294 295 295 295 295 294 294 293
343 345 345 343 338 335 333 330 327 324 321 318 313 309 305 303 303 302 301 300 300 300 300 299 298 298 299 299 297 297 297 297 297 294 293 294 294 296 296 296 294 294 293
339 341 341 340 339 338 335 332 329 326 323 320 315 310 307 305 303 302 302 301 299 298 298 298 299 299 299 299 298 298 298 297 297 295 295 295 295 295 296 295 296 295 294
333 335 336 336 335 334 333 331 327 324 323 320 316 312 309 308 304 302 302 301 299 297 297 296 297 297 297 297 298 298 298 298 296 295 295 295 295 295 295 295 295 295 295
328 329 330 330 329 328 328 329 329 326 323 320 317 315 312 309 307 304 303 301 299 296 295 296 296 296 296 297 297 298 298 297 296 297 296 296 296 296 296 296 295 295 295
324 325 325 325 326 325 324 325 326 325 321 318 316 314 313 311 308 307 305 302 301 299 296 296 296 296 297 297 297 297 296 296 297 297 297 297 296 295 296 296 296 296 296
319 320 319 321 321 321 321 322 323 324 321 317 314 313 312 310 308 306 305 303 302 301 299 298 298 297 297 296 297 297 296 296 295 296 296 297 297 297 297 297 297 297 297
314 316 317 317 316 316 318 318 318 319 319 316 313 311 310 309 308 307 305 302 301 299 299 299 298 297 297 296 295 296 297 297 297 296 297 299 298 298 298 298 298 298 297
308 310 312 312 312 312 313 314 315 315 316 316 314 311 310 308 307 307 305 304 301 299 300 300 299 300 299 298 297 297 297 297 297 298 298 298 298 298 298 298 298 298 298
Height
5886 5886 5886 5887 5888 5888 5889 5889 5890 5891 5891 5891 5891 5892 5892 5893 5893 5894 5894 5894 5895 5895 5895 5896 5896 5896 5896 5896 5896 5896 5896 5896 5896 5895 5895 5894 5894 5894 5894 5893 5893 5893 5893
5886 5887 5887 5888 5888 5889 5889 5889 5890 5891 5891 5891 5892 5892 5892 5893 5893 5893 5894 5894 5894 5895 5895 5895 5895 5895 5895 5895 5895 5895 5895 5895 5894 5894 5893 5893 5893 5893 5892 5892 5892 5892 5891
5886 5887 5887 5888 5888 5889 5889 5890 5890 5891 5891 5891 5892 5892 5892 5892 5892 5893 5893 5893 5893 5894 5894 5894 5894 5894 5894 5894 5894 5894 5893 5893 5893 5892 5892 5891 5891 5891 5890 5890 5890 5890 5889
5887 5887 5888 5888 5888 5889 5889 5890 5890 5890 5891 5891 5891 5891 5892 5892 5891 5892 5892 5892 5892 5892 5892 5892 5893 5893 5892 5892 5892 5892 5891 5891 5891 5890 5890 5889 5889 5889 5888 5888 5887 5887 5887
5887 5888 5888 5888 5888 5889 5889 5890 5890 5890 5890 5890 5891 5891 5891 5891 5891 5891 5891 5891 5891 5891 5891 5891 5891 5891 5890 5890 5890 5889 5889 5889 5888 5888 5888 5887 5887 5886 5885 5885 5884 5884 5883
5888 5888 5888 5888 5889 5889 5889 5889 5889 5889 5889 5890 5890 5890 5890 5890 5890 5890 5890 5889 5889 5889 5889 5889 5889 5888 5888 5888 5887 5887 5887 5886 5886 5885 5885 5884 5884 5883 5882 5882 5881 5880 5880
5889 5889 5888 5889 5889 5889 5889 5889 5889 5889 5889 5889 5889 5889 5888 5888 5888 5888 5887 5887 5887 5887 5887 5887 5886 5886 5886 5885 5885 5884 5884 5883 5882 5882 5882 5881 5881 5880 5879 5878 5877 5877 5876
5890 5889 5889 5889 5889 5889 5889 5888 5888 5888 5888 5888 5887 5887 5887 5887 5886 5886 5886 5886 5885 5885 5885 5884 5884 5883 5883 5883 5882 5881 5880 5880 5879 5878 5878 5877 5877 5876 5875 5875 5874 5873 5872
5890 5890 5890 5889 5889 5889 5888 5888 5888 5887 5887 5887 5886 5886 5886 5885 5885 5885 5884 5883 5883 5883 5882 5882 5881 5880 5880 5879 5878 5878 5877 5876 5875 5875 5874 5874 5873 5872 5872 5871 5870 5869 5867
5891 5891 5890 5890 5889 5888 5888 5887 5887 5886 5886 5885 5885 5884 5884 5883 5883 5883 5882 5881 5881 5880 5879 5879 5878 5878 5877 5876 5874 5874 5873 5872 5871 5871 5870 5869 5869 5868 5867 5866 5865 5864 5862
5892 5891 5890 5889 5888 5888 5887 5886 5886 5885 5884 5884 5883 5883 5882 5881 5881 5881 5880 5879 5879 5878 5877 5876 5875 5874 5874 5873 5872 5871 5870 5868 5867 5867 5866 5865 5864 5863 5862 5861 5860 5859 5857
5893 5892 5890 5889 5888 5887 5886 5885 5884 5883 5882 5882 5881 5881 5880 5879 5879 5878 5877 5876 5876 5875 5874 5872 5871 5870 5870 5869 5868 5867 5865 5864 5863 5862 5862 5860 5859 5858 5857 5856 5855 5853 5852
5893 5892 5890 5889 5887 5886 5885 5884 5883 5882 5881 5880 5879 5878 5877 5877 5876 5875 5874 5873 5872 5872 5870 5869 5868 5867 5866 5865 5864 5863 5861 5860 5859 5858 5857 5856 5854 5853 5852 5851 5849 5848 5847
5893 5892 5890 5888 5886 5885 5883 5882 5881 5879 5878 5877 5876 5875 5875 5874 5873 5872 5871 5870 5869 5868 5867 5866 5864 5864 5862 5861 5860 5858 5857 5856 5854 5853 5852 5850 5849 5848 5847 5845 5844 5842 5841
5894 5892 5890 5888 5886 5884 5882 5880 5879 5877 5876 5875 5874 5873 5872 5871 5870 5869 5868 5867 5866 5864 5863 5862 5861 5860 5858 5857 5855 5853 5852 5851 5850 5848 5847 5846 5844 5843 5841 5839 5838 5836 5835
5893 5891 5889 5887 5885 5883 5881 5879 5877 5875 5874 5872 5871 5870 5869 5868 5866 5865 5864 5863 5862 5861 5859 5858 5857 5856 5854 5853 5851 5849 5847 5846 5845 5843 5842 5840 5839 5837 5836 5834 5832 5830 5829
5892 5890 5887 5885 5883 5881 5879 5877 5875 5873 5871 5870 5868 5867 5866 5864 5863 5862 5860 5859 5858 5857 5855 5854 5852 5851 5850 5848 5847 5845 5843 5841 5839 5838 5836 5834 5833 5831 5829 5827 5826 5824 5822
5892 5889 5886 5883 5881 5879 5877 5875 5873 5871 5869 5867 5865 5864 5863 5861 5860 5858 5857 5855 5854 5852 5851 5849 5847 5846 5844 5843 5841 5840 5838 5836 5834 5831 5830 5828 5826 5825 5823 5821 5819 5817 5815
5891 5888 5885 5882 5880 5877 5875 5873 5871 5869 5866 5864 5862 5861 5859 5858 5856 5854 5853 5851 5850 5848 5846 5845 5843 5841 5839 5837 5835 5833 5832 5830 5827 5825 5823 5821 5819 5818 5816 5814 5812 5810 5808
5889 5886 5884 5881 5878 5876 5873 5871 5868 5866 5864 5861 5859 5857 5856 5854 5852 5850 5848 5847 5845 5843 5841 5839 5838 5836 5834 5831 5829 5827 5825 5823 5821 5819 5817 5815 5813 5811 5809 5807 5805 5803 5801
5887 5885 5882 5879 5877 5874 5871 5868 5866 5863 5861 5858 5856 5853 5851 5849 5847 5845 5843 5841 5839 5837 5836 5834 5832 5830 5828 5826 5823 5821 5819 5817 5815 5813 5811 5808 5806 5804 5802 5800 5798 5795 5793
5884 5882 5879 5877 5874 5871 5869 5866 5863 5860 5857 5854 5852 5849 5847 5845 5843 5840 5838 5836 5834 5832 5830 5828 5826 5824 5821 5819 5817 5814 5812 5810 5808 5806 5803 5801 5799 5797 5794 5792 5790 5787 5785
5882 5879 5876 5873 5871 5868 5865 5862 5859 5856 5853 5851 5848 5845 5843 5840 5838 5835 5833 5830 5828 5826 5824 5822 5819 5817 5815 5812 5810 5808 5805 5803 5801 5798 5796 5793 5791 5789 5787 5784 5782 5779 5777
5878 5875 5872 5870 5867 5864 5861 5858 5855 5852 5849 5846 5843 5840 5838 5835 5832 5830 5827 5824 5822 5819 5817 5814 5812 5810 5807 5804 5802 5800 5797 5795 5793 5790 5788 5786 5783 5781 5779 5776 5774 5771 5768
5874 5871 5868 5866 5863 5860 5857 5854 5851 5848 5844 5841 5838 5835 5832 5829 5826 5823 5821 5818 5815 5812 5809 5807 5805 5802 5800 5797 5794 5792 5790 5787 5785 5783 5780 5778 5776 5773 5770 5768 5765 5762 5760
5869 5866 5864 5861 5858 5855 5852 5849 5845 5842 5839 5836 5833 5829 5826 5823 5820 5817 5813 5810 5808 5805 5802 5800 5798 5795 5792 5790 5787 5785 5782 5780 5778 5775 5772 5770 5767 5765 5763 5760 5757 5754 5752